Coldwater, MI

8:52 AM EDT on May 24, 2018 (GMT -0400)
Branch County Memorial

Weather History for KOEB - December, 2013

Change the Weather History Date:

Saturday, December 28, 2013

  Actual Average (KJYM) Record (KJYM)
Temperature  
Mean Temperature 40 °F -  
Max Temperature 48 °F 32 °F 62 °F (1982)
Min Temperature 33 °F 14 °F -9 °F (2017)
Degree Days  
Heating Degree Days 24    
Moisture  
Dew Point 31 °F    
Average Humidity 72    
Maximum Humidity 87    
Minimum Humidity 55    
Precipitation  
Precipitation 0.00 in - - ()
Sea Level Pressure  
Sea Level Pressure 30.02 in    
Wind  
Wind Speed 11 mph (SW)    
Max Wind Speed 16 mph    
Max Gust Speed 26 mph    
Visibility 10 miles    
Events      
Averages and records for this station are not official NWS values.
T = Trace of Precipitation, MM = Missing Value Source: NWS Daily Summary

Daily Weather History Graph

Daily Weather History Graph

Search for Another Location

Airport or City:

Astronomy

Dec. 28, 2013 Rise Set
Actual Time 8:07 AM EST 5:16 PM EST
Civil Twilight 7:35 AM EST 5:48 PM EST
Nautical Twilight 7:00 AM EST 6:23 PM EST
Astronomical Twilight 6:26 AM EST 6:57 PM EST
Moon 3:41 AM EST (12/28) 2:08 PM EST (12/28)
Length of Visible Light 10h 12m
Length of Day
9h 09m
Waning Crescent, 19% of the Moon is Illuminated
Dec 28
Waning Crescent
Jan 1
New
Jan 7
First Quarter
Jan 15
Full
Jan 24
Last Quarter

Hourly Weather History & Observations

Time (EST) Temp. Windchill Dew Point Humidity Pressure Visibility Wind Dir Wind Speed Gust Speed Precip Events Conditions
12:14 AM 36.9 °F 28.2 °F 30.2 °F 77% 30.08 in 10.0 mi SW 13.8 mph 23.0 mph N/A   Clear
12:35 AM 36.7 °F 27.6 °F 30.2 °F 77% 30.08 in 10.0 mi SW 15.0 mph 21.9 mph N/A   Clear
12:55 AM 36.7 °F 27.6 °F 30.2 °F 77% 30.07 in 10.0 mi SW 15.0 mph 26.5 mph N/A   Clear
1:15 AM 36.9 °F 27.8 °F 30.2 °F 77% 30.07 in 10.0 mi SW 15.0 mph 21.9 mph N/A   Clear
1:35 AM 36.7 °F 27.2 °F 30.2 °F 77% 30.06 in 10.0 mi SW 16.1 mph 21.9 mph N/A   Clear
1:55 AM 36.5 °F 27.8 °F 30.4 °F 78% 30.06 in 10.0 mi SW 13.8 mph - N/A   Clear
2:15 AM 36.0 °F 26.7 °F 30.2 °F 80% 30.06 in 10.0 mi SW 15.0 mph 21.9 mph N/A   Clear
2:35 AM 35.6 °F 27.5 °F 30.2 °F 81% 30.07 in 10.0 mi SW 11.5 mph 19.6 mph N/A   Clear
2:54 AM 35.6 °F 28.0 °F 30.2 °F 81% 30.07 in 10.0 mi WSW 10.4 mph 17.3 mph N/A   Clear
3:15 AM 35.4 °F 26.8 °F 30.2 °F 81% 30.06 in 10.0 mi SW 12.7 mph 19.6 mph N/A   Clear
3:35 AM 35.6 °F 27.1 °F 30.0 °F 80% 30.06 in 10.0 mi WSW 12.7 mph 19.6 mph N/A   Clear
3:55 AM 35.2 °F 27.1 °F 30.0 °F 81% 30.05 in 10.0 mi WSW 11.5 mph 17.3 mph N/A   Clear
4:15 AM 34.9 °F 26.6 °F 29.8 °F 82% 30.05 in 10.0 mi WSW 11.5 mph - N/A   Clear
4:34 AM 34.9 °F 27.1 °F 29.8 °F 82% 30.05 in 10.0 mi WSW 10.4 mph - N/A   Clear
4:55 AM 34.5 °F 27.9 °F 29.7 °F 82% 30.06 in 10.0 mi WSW 8.1 mph - N/A   Clear
5:15 AM 33.8 °F 26.4 °F 29.7 °F 85% 30.06 in 10.0 mi WSW 9.2 mph - N/A   Clear
5:34 AM 33.8 °F 27.0 °F 29.3 °F 84% 30.06 in 10.0 mi WSW 8.1 mph - N/A   Clear
5:55 AM 33.4 °F 26.6 °F 29.3 °F 85% 30.07 in 10.0 mi SW 8.1 mph - N/A   Clear
6:15 AM 33.1 °F 25.5 °F 29.3 °F 86% 30.08 in 10.0 mi SW 9.2 mph - N/A   Clear
6:34 AM 33.4 °F 25.9 °F 29.3 °F 85% 30.08 in 10.0 mi SW 9.2 mph - N/A   Clear
6:55 AM 33.8 °F 25.3 °F 29.8 °F 85% 30.08 in 10.0 mi SW 11.5 mph 17.3 mph N/A   Clear
7:15 AM 34.2 °F 26.2 °F 29.7 °F 84% 30.09 in 10.0 mi SW 10.4 mph - N/A   Clear
7:34 AM 33.8 °F 26.4 °F 29.8 °F 85% 30.09 in 10.0 mi SW 9.2 mph - N/A   Clear
7:55 AM 33.8 °F 25.8 °F 29.8 °F 85% 30.10 in 10.0 mi WSW 10.4 mph - N/A   Clear
8:15 AM 33.3 °F 26.4 °F 29.7 °F 87% 30.10 in 10.0 mi SW 8.1 mph - N/A   Clear
8:34 AM 33.8 °F 27.7 °F 29.8 °F 85% 30.10 in 10.0 mi SW 6.9 mph - N/A   Clear
8:55 AM 34.3 °F 27.7 °F 30.2 °F 85% 30.10 in 10.0 mi SW 8.1 mph - N/A   Clear
9:14 AM 35.1 °F 28.6 °F 30.2 °F 82% 30.10 in 10.0 mi WSW 8.1 mph - N/A   Clear
9:35 AM 36.3 °F 30.8 °F 30.6 °F 80% 30.10 in 10.0 mi SW 6.9 mph - N/A   Clear
9:55 AM 37.0 °F 30.4 °F 30.7 °F 78% 30.09 in 10.0 mi SW 9.2 mph - N/A   Clear
10:14 AM 37.8 °F 30.7 °F 30.9 °F 76% 30.08 in 10.0 mi SW 10.4 mph - N/A   Clear
10:35 AM 38.8 °F 32.1 °F 31.1 °F 74% 30.09 in 10.0 mi SW 10.4 mph - N/A   Clear
10:55 AM 39.9 °F 33.4 °F 31.5 °F 72% 30.09 in 10.0 mi SW 10.4 mph - N/A   Clear
11:15 AM 40.5 °F 33.2 °F 31.6 °F 71% 30.08 in 10.0 mi WSW 12.7 mph - N/A   Clear
11:35 AM 41.7 °F 36.7 °F 32.0 °F 68% 30.08 in 10.0 mi SW 8.1 mph - N/A   Clear
11:54 AM 42.3 °F 37.3 °F 32.0 °F 67% 30.07 in 10.0 mi SW 8.1 mph - N/A   Clear
12:15 PM 43.7 °F 39.1 °F 32.4 °F 64% 30.06 in 10.0 mi SW 8.1 mph - N/A   Clear
12:35 PM 44.1 °F 39.0 °F 32.0 °F 63% 30.04 in 10.0 mi SW 9.2 mph 16.1 mph N/A   Clear
12:54 PM 44.8 °F 38.7 °F 32.4 °F 62% 30.03 in 10.0 mi SW 12.7 mph - N/A   Clear
1:15 PM 45.5 °F 40.8 °F 32.2 °F 60% 30.02 in 10.0 mi SW 9.2 mph 18.4 mph N/A   Clear
1:35 PM 46.4 °F 41.5 °F 32.7 °F 59% 30.01 in 10.0 mi SW 10.4 mph - N/A   Clear
1:54 PM 47.1 °F - 33.1 °F 58% 29.99 in 10.0 mi SW 8.1 mph - N/A   Clear
2:15 PM 47.3 °F - 33.3 °F 58% 29.98 in 10.0 mi SSW 11.5 mph - N/A   Clear
2:35 PM 47.8 °F - 33.4 °F 57% 29.98 in 10.0 mi SW 9.2 mph 16.1 mph N/A   Clear
2:54 PM 48.0 °F - 33.1 °F 56% 30.00 in 10.0 mi SSW 11.5 mph 20.7 mph N/A   Clear
3:15 PM 47.8 °F - 32.7 °F 56% 30.00 in 10.0 mi SSW 12.7 mph 19.6 mph N/A   Clear
3:35 PM 47.8 °F - 32.2 °F 55% 29.99 in 10.0 mi SW 11.5 mph - N/A   Clear
3:54 PM 47.5 °F - 32.4 °F 56% 29.99 in 10.0 mi SSW 10.4 mph - N/A   Clear
4:15 PM 46.8 °F - 31.8 °F 56% 29.99 in 10.0 mi SSW 10.4 mph 16.1 mph N/A   Clear
4:35 PM 45.0 °F 41.2 °F 31.1 °F 58% 29.98 in 10.0 mi SSW 6.9 mph - N/A   Clear
4:55 PM 43.7 °F 38.1 °F 31.1 °F 61% 29.98 in 10.0 mi SSW 10.4 mph - N/A   Clear
5:15 PM 42.4 °F 36.5 °F 31.1 °F 64% 29.97 in 10.0 mi SSW 10.4 mph - N/A   Clear
5:35 PM 42.1 °F 36.1 °F 31.6 °F 67% 29.97 in 10.0 mi SSW 10.4 mph - N/A   Clear
5:55 PM 41.4 °F 35.2 °F 32.0 °F 69% 29.97 in 10.0 mi SSW 10.4 mph - N/A   Clear
6:15 PM 41.0 °F 35.8 °F 32.0 °F 70% 29.96 in 10.0 mi SSW 8.1 mph - N/A   Clear
6:34 PM 41.4 °F 34.7 °F 32.0 °F 69% 29.98 in 10.0 mi SSW 11.5 mph 17.3 mph N/A   Clear
6:55 PM 40.5 °F 33.6 °F 32.0 °F 72% 29.97 in 10.0 mi SSW 11.5 mph - N/A   Clear
7:15 PM 40.8 °F 34.5 °F 32.0 °F 71% 29.97 in 10.0 mi SSW 10.4 mph - N/A   Clear
7:34 PM 41.0 °F 35.2 °F 32.0 °F 70% 29.96 in 10.0 mi SSW 9.2 mph - N/A   Clear
7:55 PM 41.0 °F 34.7 °F 32.0 °F 70% 29.95 in 10.0 mi SSW 10.4 mph 16.1 mph N/A   Clear
8:15 PM 41.0 °F 35.2 °F 32.0 °F 70% 29.95 in 10.0 mi SSW 9.2 mph 16.1 mph N/A   Clear
8:35 PM 41.0 °F 33.5 °F 32.0 °F 70% 29.94 in 10.0 mi SSW 13.8 mph 19.6 mph N/A   Clear
8:55 PM 40.3 °F 34.4 °F 31.6 °F 71% 29.93 in 10.0 mi SSW 9.2 mph - N/A   Clear
9:15 PM 39.4 °F 32.3 °F 31.1 °F 72% 29.93 in 10.0 mi SSW 11.5 mph 17.3 mph N/A   Clear
9:35 PM 38.7 °F 31.4 °F 30.4 °F 72% 29.93 in 10.0 mi SW 11.5 mph 16.1 mph N/A   Clear
9:55 PM 39.4 °F 32.3 °F 29.8 °F 69% 29.92 in 10.0 mi SW 11.5 mph 18.4 mph N/A   Clear
10:15 PM 39.6 °F 32.5 °F 29.1 °F 66% 29.91 in 10.0 mi SSW 11.5 mph - N/A   Clear
10:35 PM 39.0 °F 32.8 °F 28.8 °F 67% 29.90 in 10.0 mi SSW 9.2 mph - N/A   Clear
10:54 PM 38.7 °F 31.4 °F 28.4 °F 67% 29.90 in 10.0 mi SW 11.5 mph - N/A   Clear
11:15 PM 38.3 °F 31.9 °F 28.4 °F 68% 29.90 in 10.0 mi SW 9.2 mph - N/A   Clear
11:35 PM 38.3 °F 31.9 °F 28.0 °F 67% 29.90 in 10.0 mi SSW 9.2 mph - N/A   Clear
11:54 PM 38.5 °F 31.1 °F 28.0 °F 66% 29.88 in 10.0 mi SSW 11.5 mph - N/A   Clear